Regional Weather Roundup
Issued by NWS

Home | Current Version | Previous Version | Text Only | Print | Product List | Glossary On
Versions: 1 2 3 4 5 6 7 8 9 10 11 12 13 14 15 16 17 18 19 20 21 22 23 24 25 26 27 28 29 30 31 32 33 34 35 36 37 38 39 40 41 42 43 44 45 46 47 48
000
ASUS45 KSLC 260510
RWRUT

UTAH REGIONAL WEATHER ROUNDUP
NATIONAL WEATHER SERVICE SALT LAKE CITY UT
1100 PM MDT FRI JUL 25 2014

UTZ001>011-023>025-260600-

NORTHERN UTAH

CITY           SKY/WX    TMP DP  RH WIND       PRES   REMARKS
HILL AFB       CLEAR     77  35  22 E9        30.03R
LOGAN          CLEAR     73  41  31 VRB6      30.04R
OGDEN          CLEAR     75  37  25 S5        30.00R
PROVO AIRPORT  CLEAR     75  54  46 CALM      30.06R
SALT LAKE CITY PTCLDY    80  42  25 SE7       29.99R
VERNAL         CLOUDY    80  46  30 SW5       30.10R
WENDOVER       CLEAR     84  30  14 N24       30.00R
HEBER CITY     CLEAR     72  43  35 NW8       30.13R
WEST JORDAN    CLEAR     79  46  31 SW7       30.03R

$$

UTZ012>022-026-027-260600-

SOUTHERN UTAH

CITY           SKY/WX    TMP DP  RH WIND       PRES   REMARKS
BRYCE CANYON   LGT RAIN  63  48  58 NW3       30.35S
CEDAR CITY     CLOUDY    75  46  35 S6        30.16S
MILFORD        MOCLDY    81  50  33 S17       30.09R
MOAB/CYNLANDS  CLEAR     83  47  28 W14       30.06R
PRICE          CLOUDY    76  46  34 S8        30.19R
ST GEORGE      CLEAR     88  48  25 E8        29.97S
KANAB            N/A     72  52  49 NE5       30.17S

$$

REGIONAL REPORTS     COLORADO/ARIZONA

CITY           SKY/WX    TMP DP  RH WIND       PRES   REMARKS
CRAIG, CO      MOCLDY    57  51  80 CALM      30.23R
GRAND JUNCTION MOCLDY    71  59  65 SE6       30.09S
RIFLE          MOCLDY    70  50  49 NE5       30.17R
MONTROSE       MOCLDY    73  53  49 SE8       30.19S
CORTEZ         CLEAR     70  46  42 NE7       30.17S
PAGE, AZ       MOCLDY    86  51  29 W3        30.08S
GRAND CANYON   MOCLDY    67  46  47 CALM      30.32R
KINGMAN        TSTM      77  59  53 SE28G40   30.09R
FLAGSTAFF      CLOUDY    70  48  45 SW13      30.36R

$$

REGIONAL REPORTS    NEVADA/IDAHO/WYOMING

CITY           SKY/WX    TMP DP  RH WIND       PRES   REMARKS
LAS VEGAS, NV  MOCLDY    98  50  19 S12       29.83R HX  95
ELY            PTCLDY    78  41  26 SE9G20    30.17R
ELKO           CLEAR     69  27  20 CALM      30.07R
POCATELLO, ID  CLEAR     70  30  22 SW13      30.07R
BURLEY         CLEAR     61  41  47 W6        30.07R
EVANSTON, WY   CLEAR     71  30  21 CALM      30.24R
ROCK SPRINGS   PTCLDY    71  23  16 N12       30.18S

$$


USA.gov is the U.S. government's official web portal to all federal, state and local government web resources and services.